Location: Iowa City
(41.6610°N, 91.5300°W)
Time: 06:42:06
(UTC-05:00)

ISS - Visible Passes

Search period start: 24 April 2014 00:00
Search period end: 04 May 2014 00:00
Orbit: 413 x 418 km, 51.6° (Epoch: 24 April)

Date Brightness Start Highest point End Pass type
(mag) Time Alt. Az. Time Alt. Az. Time Alt. Az.
24 Apr -2.8 20:25:30 10° WNW 20:28:47 57° SW 20:32:04 10° SE visible
25 Apr -0.5 21:14:55 10° WSW 21:16:14 12° SW 21:17:31 10° SSW visible
26 Apr -1.0 20:24:55 10° W 20:27:29 21° SW 20:30:02 10° S visible
